Starlink 32391

operational
NORAD ID: 61855 Int'l Des: 2024-202 Owner: SPXS Country: US Constellation: starlink
LEOCIRCULAR

About Starlink 32391

Description loading...

Live Position

Loading 3D Globe...

Upcoming Passes

Altitude History

Altitude vs Time

uPlot chart will show altitude changes over time

Two-Line Element Set

1 61855U 24202L 25258.41474898 .00000083 00000-0 12550-4 0 9990
2 61855 43.0069 147.6727 0001162 265.2106 94.8614 15.27583607 48520
Epoch: Sep 15, 2025 • Age: 23 hours

Current Status

Altitude 484.6 km
Velocity 7.62 km/s
Sub-Earth Point -10.72°S, 153.25°W
Launch Date Nov 7, 2024
Age 0.8 years
Type internet

Technical Details

Classification Payload
Mass 730.00 kg
Dry Mass 700.00 kg
Total Mass 730.00 kg
Length 0.30 m
Diameter 4.10 m
Span 29.00 m
Shape Box + pan
Manufacturer SPXS
Bus Type Starlink V2M
Phase Status In Orbit
Owner/State SPXS/US

Large Constellations

Loading constellations...